Regional Weather Roundup
Issued by NWS San Diego, CA

Home | Current Version | Previous Version | Text Only | Print | Product List | Glossary On
Versions: 1 2 3 4 5 6 7 8 9 10 11 12 13 14 15 16 17 18 19 20 21 22 23 24 25 26 27 28 29 30 31 32 33 34 35 36 37 38 39 40 41 42 43 44 45 46 47 48 49 50
000
ASUS46 KSGX 220511
RWRSGX

SAN DIEGO HOURLY WEATHER ROUNDUP
NATIONAL WEATHER SERVICE SAN DIEGO CA
1000 PM PDT SAT APR 21 2018

NOTE: "FAIR" INDICATES FEW OR NO CLOUDS BELOW 12,000 FEET WITH NO
SIGNIFICANT WEATHER AND/OR OBSTRUCTIONS TO VISIBILITY.

CAZ042-043-060-061-PZZ750-775-220600-

GREATER SAN DIEGO AREA

CITY           SKY/WX    TMP DP  RH WIND       PRES   REMARKS
SAN DIEGO AP   PTCLDY    62  56  80 NW3       30.01S
NATIONAL CITY    N/A     62  57  82 CALM      30.00S
CHULA VISTA      N/A     60  57  88 CALM      29.91S
IMPERIAL BEACH PTCLDY    55  53  93 CALM      30.01R
BROWN FIELD    PTCLDY    59  55  87 CALM      30.00S
MIRAMAR MCAS   MOCLDY    63  52  67 N5        29.99S
MONTGOMERY FLD PTCLDY    63  52  67 CALM      30.00S
GILLESPIE FLD  FAIR      64  46  52 CALM      29.99S

$$

NORTH SAN DIEGO COUNTY

CITY           SKY/WX    TMP DP  RH WIND       PRES   REMARKS
CAMP PENDLETON MOCLDY    57  54  89 CALM      30.00S
OCEANSIDE AP   MOCLDY    57  53  86 CALM      29.99S
OCEANSIDE HBR    N/A     60  58  92 CALM      30.02S
VISTA            N/A     59  53  80 CALM      29.98R
CARLSBAD       MOCLDY    61  55  81 CALM      29.99S
DEL MAR          N/A     58  55  89 CALM      30.02R
LA JOLLA SCRIP   N/A     59  56  89 NW1       29.99S
FALLBROOK        N/A     58  57  96 CALM      30.01S
ESCONDIDO        N/A     65  49  55 W2        30.00R
SAN MARCOS       N/A     62  52  70 CALM      30.03S
POWAY            N/A     61  50  68 CALM      29.99R

$$

EAST SAN DIEGO COUNTY

CITY           SKY/WX    TMP DP  RH WIND       PRES   REMARKS
RAMONA         MOCLDY    60  46  59 CALM      30.02R
SANTEE LAKES     N/A     63  49  61 CALM      29.98S
LA MESA          N/A     62  52  69 CALM      29.94R
JAMUL            N/A     59  50  72 CALM      30.00R
CAMPO            N/A     62  31  31 CALM      30.02S

$$

ORANGE COUNTY AND THE LOS ANGELES BASIN

CITY           SKY/WX    TMP DP  RH WIND       PRES   REMARKS
JOHN WAYNE AP  MOCLDY    60  55  83 S7        29.99R
LAGUNA BEACH     N/A     58  55  88 CALM      29.95R
LAKE FOREST FR   N/A     66  46  48 CALM      29.86S
HUNTINGTON BCH   N/A     58  55  89 CALM      29.99R
LOS ALAMITOS   FAIR      59  53  81 S5        29.98R
FULLERTON      MOCLDY    65  51  60 CALM      29.97R
LONG BEACH     CLOUDY    64  52  64 E3        29.97S
L.A. AP        CLOUDY    61  54  77 SW6       29.97S
L.A. DOWNTOWN  CLOUDY    62  52  69 CALM      29.97R

$$

THE INLAND EMPIRE

CITY           SKY/WX    TMP DP  RH WIND       PRES   REMARKS
CORONA         CLOUDY    67  44  43 CALM      29.98R
CHINO          CLOUDY    70  43  37 CALM      29.99R
ONTARIO        CLOUDY    72  42  34 SE5       29.98R
SAN BERNARDINO FAIR      74  31  20 SE5       29.99S
RIVERSIDE AP   CLOUDY    72  42  34 CALM      29.98R
MORENO VALLEY    N/A     73  40  30 S2        28.12R
MARCH ARB      CLOUDY    70  34  27 SW3       30.01R
HORSETHIEF CYN   N/A     70  25  18 CALM      29.99R
PERRIS           N/A     71  40  32 CALM      29.94R
HEMET EAST       N/A     69  31  23 CALM      29.94S
FRENCH VALLEY  FAIR      64  45  48 CALM      30.02R
TEMECULA         N/A     65  50  58 SE2       30.05R

$$

SAN BERNARDINO AND RIVERSIDE COUNTY MOUNTAINS

CITY           SKY/WX    TMP DP  RH WIND       PRES   REMARKS
BIG BEAR AP    CLOUDY    45  23  42 CALM      30.24S

$$

SOUTHERN DESERT INCLUDING THE COACHELLA VALLEY

CITY           SKY/WX    TMP DP  RH WIND       PRES   REMARKS
PALM SPRINGS   MOCLDY    82  33  17 CALM      29.94R
THOUSAND PALMS   N/A     81  35  19 NW3       29.89R
PALM DESERT      N/A     79  41  25 CALM        N/A
THERMAL        CLOUDY    76  36  23 N3        29.88R
BLYTHE         MOCLDY    82  31  15 W9        29.90R
IMPERIAL AP    PTCLDY    75  37  25 SW8       29.88S
EL CENTRO NAS  MOCLDY    76  31  19 SW8       29.90R
YUMA AZ        CLEAR     75  40  28 CALM      29.90R
MEXICALI       PTCLDY    77  39  25 SW5       29.90

$$

UPPER DESERT

CITY           SKY/WX    TMP DP  RH WIND       PRES   REMARKS
VICTORVILLE AP CLOUDY    70  27  19 W8        30.06R
HESPERIA         N/A     66  33  29 W3        30.01R
APPLE VALLEY     N/A     58  35  41 CALM      30.03R
PALMDALE       CLOUDY    70  25  18 NW3       30.05R
LANCASTER      MOCLDY    66  30  26 W9        30.04S
EDWARDS AFB    MOCLDY    69  35  28 W12       30.01S
DAGGETT        CLOUDY    71  19  14 W8        29.99R
29 PALMS N     MOCLDY    71  12  10 SW10      30.05R
NEEDLES        CLOUDY    82  19   9 W10       29.91R

$$

REGIONAL REPORTS

CITY           SKY/WX    TMP DP  RH WIND       PRES   REMARKS
SANTA BARBARA  MOCLDY    55  52  89 CALM      29.97R
SANDBERG       PTCLDY    58  37  45 N12G17    30.16R
LAS VEGAS NV   PTCLDY    76  28  17 W6        29.99R
PHOENIX AZ     MOCLDY    79  33  19 CALM      29.92R
TIJUANA        PTCLDY    59  54  82 CALM      30.03R

$$

OFFSHORE ISLANDS

CITY           SKY/WX    TMP DP  RH WIND       PRES   REMARKS
CATALINA ARPT  MOCLDY    71  27  19 NW8       30.03S

$$

MARINE AND OFFSHORE BUOY REPORTS

STATION/POSITION SKY/WX   TEMP    WIND        PRES    VSBY  SWELL
                          AIR SEA DIR/SP/G                  HT/PER/DIR
                          (F)     (DEG/KT/KT) (MB)    (MI)  (FT/S/D)
TANNER BANKS               58 57              1015.7R
S CLEMENTE BASIN           61 62  280/  2/  4 1016.2R         5/220/16
SAN NICOLAS IS.               57                N/A           5/180/17
SO. S. ROSA ISLA           55 55  300/ 16/ 17 1015.1S         7/280/16
W. S. BARBARA CH              53  300/ 16/ 19 1015.0R         7/290/15
M. S. BARBARA CH           56 56  230/ 14/ 17 1015.4R         3/260/ 9
S. MONICA BASIN                   260/  4/  6 1014.5R         3/160/16
S PEDRO CHANNEL               56                N/A           3/160/17
CMP PENDLETON NS              60                N/A           2/210/17
OCEANSIDE OFFSHR              60                N/A           2/180/17
TORREY PINES OTR              60                N/A           2/200/15
SAN DIEGO BAY                 62              1015.6R
POINT LOMA SOUTH              61                N/A           3/180/17

$$




USA.gov is the U.S. government's official web portal to all federal, state and local government web resources and services.